Location: Ripley
(48.3812°N, 115.4473°W)
Time: 20:32:43
(UTC+00:00)

EO-79 - Pass Details

Date: 30 June 2022
Orbit: 588 x 603 km, 98.0° (Epoch: 11 August)

Event Time Altitude Azimuth Distance (km) Brightness Sun altitude
Rises 08:50:02 0° 22° (NNE) 2,855 ? -17.0°
Reaches altitude 10° 08:52:24 10° 32° (NNE) 1,950 ? -16.9°
Maximum altitude 08:56:13 32° 96° (E) 1,032 ? -16.7°
Enters shadow 08:58:34 19° 148° (SSE) 1,450 ? -16.6°
